Multibeam Report for SKQ202111S


Ship Name: Sikuliaq
Chief Scientist: Newhall, Kristopher
Woods Hole Oceanographic Institution
Source Organization: Rolling Deck to Repository (R2R)
Start Date: 2021-07-18
End Date: 2021-08-02


View ISO Metadata

Visit the full NCEI Bathymetry Viewer


Multibeam Bathymetry

Cruise Details

Project: OOI Papa
Instrument: Kongsberg EM710; Kongsberg EM302

Data Quality

Number of Files: 204
Number of Records: 157124
BATHYMETRY DATA Quantity Percentage
Number of Beams 67767456 100%
Number of Good Beams 63194190 93.25%
Number of Zero Beams 0 0%
Number of Flagged Beams 4573266 6.75%

Navigation Totals

Total Time: 187.0796 hours
Total Track Length: 2419.3083 km
Average Speed: 12.932 km/hr (6.9827 knots)

Cruise Bounds

Northern Extent: 60.275814
Southern Extent: 49.96681
Western Extent: -149.4601
Eastern Extent: -144.15237

Limits

Minimum Sonar Depth 3.1241 Maximum Sonar Depth 6.7334
Minimum Altitude 22.6332 Maximum Altitude 5175.9653
Minimum Depth 20.8897 Maximum Depth 5544.6743

File Information

Full Resolution Bathymetry as collected (raw): 197

Files File Size Description
0000_20210719_013800_Sikuliaq.all.mb58.gz 53.70MB Kongsberg multibeam vendor format
0001_20210719_023759_Sikuliaq.all.mb58.gz 59.23MB Kongsberg multibeam vendor format
0002_20210719_033759_Sikuliaq.all.mb58.gz 65.76MB Kongsberg multibeam vendor format
0003_20210719_043759_Sikuliaq.all.mb58.gz 64.72MB Kongsberg multibeam vendor format
0004_20210719_053759_Sikuliaq.all.mb58.gz 46.34MB Kongsberg multibeam vendor format
0005_20210719_063759_Sikuliaq.all.mb58.gz 30.70MB Kongsberg multibeam vendor format
0006_20210719_073800_Sikuliaq.all.mb58.gz 24.56MB Kongsberg multibeam vendor format
0007_20210719_083800_Sikuliaq.all.mb58.gz 17.35MB Kongsberg multibeam vendor format
0008_20210719_213004_Sikuliaq.all.mb58.gz 33.93MB Kongsberg multibeam vendor format
0009_20210719_223010_Sikuliaq.all.mb58.gz 33.84MB Kongsberg multibeam vendor format
0010_20210719_233009_Sikuliaq.all.mb58.gz 33.82MB Kongsberg multibeam vendor format
0011_20210720_003009_Sikuliaq.all.mb58.gz 33.86MB Kongsberg multibeam vendor format
0012_20210720_013010_Sikuliaq.all.mb58.gz 33.79MB Kongsberg multibeam vendor format
0013_20210720_023004_Sikuliaq.all.mb58.gz 33.87MB Kongsberg multibeam vendor format
0014_20210720_033008_Sikuliaq.all.mb58.gz 33.89MB Kongsberg multibeam vendor format
0015_20210720_043003_Sikuliaq.all.mb58.gz 33.89MB Kongsberg multibeam vendor format
0016_20210720_053005_Sikuliaq.all.mb58.gz 33.99MB Kongsberg multibeam vendor format
0017_20210720_063004_Sikuliaq.all.mb58.gz 34.23MB Kongsberg multibeam vendor format
0018_20210720_073006_Sikuliaq.all.mb58.gz 34.06MB Kongsberg multibeam vendor format
0019_20210720_083008_Sikuliaq.all.mb58.gz 34.01MB Kongsberg multibeam vendor format
0020_20210720_093007_Sikuliaq.all.mb58.gz 34.01MB Kongsberg multibeam vendor format
0021_20210720_103004_Sikuliaq.all.mb58.gz 34.02MB Kongsberg multibeam vendor format
0022_20210720_113005_Sikuliaq.all.mb58.gz 33.92MB Kongsberg multibeam vendor format
0023_20210720_123003_Sikuliaq.all.mb58.gz 33.95MB Kongsberg multibeam vendor format
0024_20210720_133003_Sikuliaq.all.mb58.gz 33.93MB Kongsberg multibeam vendor format
0025_20210720_143004_Sikuliaq.all.mb58.gz 34.03MB Kongsberg multibeam vendor format
0026_20210720_153007_Sikuliaq.all.mb58.gz 34.02MB Kongsberg multibeam vendor format
0027_20210720_163009_Sikuliaq.all.mb58.gz 33.93MB Kongsberg multibeam vendor format
0028_20210720_173011_Sikuliaq.all.mb58.gz 211.9KB Kongsberg multibeam vendor format
0029_20210720_192528_Sikuliaq.all.mb58.gz 33.95MB Kongsberg multibeam vendor format
0030_20210720_202532_Sikuliaq.all.mb58.gz 33.99MB Kongsberg multibeam vendor format
0031_20210720_212534_Sikuliaq.all.mb58.gz 34.03MB Kongsberg multibeam vendor format
0032_20210720_222532_Sikuliaq.all.mb58.gz 34.00MB Kongsberg multibeam vendor format
0033_20210720_232528_Sikuliaq.all.mb58.gz 34.22MB Kongsberg multibeam vendor format
0034_20210721_002532_Sikuliaq.all.mb58.gz 35.75MB Kongsberg multibeam vendor format
0035_20210721_012534_Sikuliaq.all.mb58.gz 34.26MB Kongsberg multibeam vendor format
0036_20210721_022532_Sikuliaq.all.mb58.gz 34.41MB Kongsberg multibeam vendor format
0037_20210721_032530_Sikuliaq.all.mb58.gz 33.98MB Kongsberg multibeam vendor format
0038_20210721_042533_Sikuliaq.all.mb58.gz 33.96MB Kongsberg multibeam vendor format
0039_20210721_052534_Sikuliaq.all.mb58.gz 33.95MB Kongsberg multibeam vendor format
0040_20210721_062535_Sikuliaq.all.mb58.gz 33.95MB Kongsberg multibeam vendor format
0041_20210721_072536_Sikuliaq.all.mb58.gz 33.94MB Kongsberg multibeam vendor format
0042_20210721_082532_Sikuliaq.all.mb58.gz 33.99MB Kongsberg multibeam vendor format
0043_20210721_092531_Sikuliaq.all.mb58.gz 33.94MB Kongsberg multibeam vendor format
0044_20210721_102528_Sikuliaq.all.mb58.gz 34.09MB Kongsberg multibeam vendor format
0045_20210721_112532_Sikuliaq.all.mb58.gz 34.11MB Kongsberg multibeam vendor format
0046_20210721_122535_Sikuliaq.all.mb58.gz 33.95MB Kongsberg multibeam vendor format
0047_20210721_132534_Sikuliaq.all.mb58.gz 33.93MB Kongsberg multibeam vendor format
0048_20210721_142530_Sikuliaq.all.mb58.gz 34.01MB Kongsberg multibeam vendor format
0049_20210721_152535_Sikuliaq.all.mb58.gz 33.92MB Kongsberg multibeam vendor format
0050_20210721_162529_Sikuliaq.all.mb58.gz 33.95MB Kongsberg multibeam vendor format
0051_20210721_172532_Sikuliaq.all.mb58.gz 33.95MB Kongsberg multibeam vendor format
0052_20210721_182535_Sikuliaq.all.mb58.gz 33.92MB Kongsberg multibeam vendor format
0053_20210721_192529_Sikuliaq.all.mb58.gz 34.03MB Kongsberg multibeam vendor format
0054_20210721_202532_Sikuliaq.all.mb58.gz 33.94MB Kongsberg multibeam vendor format
0055_20210721_212534_Sikuliaq.all.mb58.gz 33.96MB Kongsberg multibeam vendor format
0056_20210721_222535_Sikuliaq.all.mb58.gz 33.92MB Kongsberg multibeam vendor format
0057_20210721_232537_Sikuliaq.all.mb58.gz 33.97MB Kongsberg multibeam vendor format
0058_20210722_002531_Sikuliaq.all.mb58.gz 34.13MB Kongsberg multibeam vendor format
0059_20210722_012531_Sikuliaq.all.mb58.gz 34.17MB Kongsberg multibeam vendor format
0060_20210722_022534_Sikuliaq.all.mb58.gz 34.28MB Kongsberg multibeam vendor format
0061_20210722_032533_Sikuliaq.all.mb58.gz 33.84MB Kongsberg multibeam vendor format
0062_20210722_042536_Sikuliaq.all.mb58.gz 33.63MB Kongsberg multibeam vendor format
0063_20210722_052533_Sikuliaq.all.mb58.gz 33.37MB Kongsberg multibeam vendor format
0064_20210722_062534_Sikuliaq.all.mb58.gz 33.88MB Kongsberg multibeam vendor format
0065_20210722_072531_Sikuliaq.all.mb58.gz 33.66MB Kongsberg multibeam vendor format
0066_20210722_082532_Sikuliaq.all.mb58.gz 33.71MB Kongsberg multibeam vendor format
0067_20210722_092533_Sikuliaq.all.mb58.gz 33.87MB Kongsberg multibeam vendor format
0068_20210722_102531_Sikuliaq.all.mb58.gz 33.87MB Kongsberg multibeam vendor format
0069_20210722_112530_Sikuliaq.all.mb58.gz 33.76MB Kongsberg multibeam vendor format
0070_20210722_122537_Sikuliaq.all.mb58.gz 33.65MB Kongsberg multibeam vendor format
0071_20210722_132536_Sikuliaq.all.mb58.gz 33.70MB Kongsberg multibeam vendor format
0072_20210722_142538_Sikuliaq.all.mb58.gz 33.60MB Kongsberg multibeam vendor format
0073_20210722_152533_Sikuliaq.all.mb58.gz 33.62MB Kongsberg multibeam vendor format
0074_20210722_162530_Sikuliaq.all.mb58.gz 1.06MB Kongsberg multibeam vendor format
0075_20210722_214155_Sikuliaq.all.mb58.gz 12.14MB Kongsberg multibeam vendor format
0076_20210723_143203_Sikuliaq.all.mb58.gz 33.71MB Kongsberg multibeam vendor format
0077_20210723_153157_Sikuliaq.all.mb58.gz 33.80MB Kongsberg multibeam vendor format
0078_20210723_163157_Sikuliaq.all.mb58.gz 33.92MB Kongsberg multibeam vendor format
0079_20210723_173201_Sikuliaq.all.mb58.gz 33.65MB Kongsberg multibeam vendor format
0080_20210723_183157_Sikuliaq.all.mb58.gz 33.76MB Kongsberg multibeam vendor format
0081_20210723_193201_Sikuliaq.all.mb58.gz 25.44MB Kongsberg multibeam vendor format
0082_20210726_045752_Sikuliaq.all.mb58.gz 33.95MB Kongsberg multibeam vendor format
0083_20210726_055750_Sikuliaq.all.mb58.gz 33.94MB Kongsberg multibeam vendor format
0084_20210726_065753_Sikuliaq.all.mb58.gz 33.90MB Kongsberg multibeam vendor format
0085_20210726_075751_Sikuliaq.all.mb58.gz 33.98MB Kongsberg multibeam vendor format
0086_20210726_085752_Sikuliaq.all.mb58.gz 33.97MB Kongsberg multibeam vendor format
0087_20210726_095756_Sikuliaq.all.mb58.gz 33.88MB Kongsberg multibeam vendor format
0088_20210726_105753_Sikuliaq.all.mb58.gz 33.88MB Kongsberg multibeam vendor format
0089_20210726_115750_Sikuliaq.all.mb58.gz 33.96MB Kongsberg multibeam vendor format
0090_20210726_125755_Sikuliaq.all.mb58.gz 31.92MB Kongsberg multibeam vendor format
0091_20210728_161825_Sikuliaq.all.mb58.gz 33.91MB Kongsberg multibeam vendor format
0092_20210728_171811_Sikuliaq.all.mb58.gz 34.07MB Kongsberg multibeam vendor format
0093_20210728_181816_Sikuliaq.all.mb58.gz 34.00MB Kongsberg multibeam vendor format
0094_20210728_191813_Sikuliaq.all.mb58.gz 33.99MB Kongsberg multibeam vendor format
0095_20210728_201810_Sikuliaq.all.mb58.gz 34.11MB Kongsberg multibeam vendor format
0096_20210728_211813_Sikuliaq.all.mb58.gz 34.04MB Kongsberg multibeam vendor format
0097_20210728_221816_Sikuliaq.all.mb58.gz 33.99MB Kongsberg multibeam vendor format
0098_20210728_231811_Sikuliaq.all.mb58.gz 34.15MB Kongsberg multibeam vendor format
0099_20210729_001818_Sikuliaq.all.mb58.gz 34.04MB Kongsberg multibeam vendor format
0100_20210729_011814_Sikuliaq.all.mb58.gz 33.96MB Kongsberg multibeam vendor format
0101_20210729_021811_Sikuliaq.all.mb58.gz 34.05MB Kongsberg multibeam vendor format
0102_20210729_031812_Sikuliaq.all.mb58.gz 33.99MB Kongsberg multibeam vendor format
0103_20210729_041811_Sikuliaq.all.mb58.gz 33.98MB Kongsberg multibeam vendor format
0104_20210729_051811_Sikuliaq.all.mb58.gz 33.99MB Kongsberg multibeam vendor format
0105_20210729_061814_Sikuliaq.all.mb58.gz 33.96MB Kongsberg multibeam vendor format
0106_20210729_071811_Sikuliaq.all.mb58.gz 34.02MB Kongsberg multibeam vendor format
0107_20210729_081815_Sikuliaq.all.mb58.gz 33.95MB Kongsberg multibeam vendor format
0108_20210729_091812_Sikuliaq.all.mb58.gz 33.91MB Kongsberg multibeam vendor format
0109_20210729_101817_Sikuliaq.all.mb58.gz 33.85MB Kongsberg multibeam vendor format
0110_20210729_111816_Sikuliaq.all.mb58.gz 33.86MB Kongsberg multibeam vendor format
0111_20210729_121817_Sikuliaq.all.mb58.gz 33.88MB Kongsberg multibeam vendor format
0112_20210729_131813_Sikuliaq.all.mb58.gz 33.96MB Kongsberg multibeam vendor format
0113_20210729_141814_Sikuliaq.all.mb58.gz 33.82MB Kongsberg multibeam vendor format
0114_20210729_151811_Sikuliaq.all.mb58.gz 33.84MB Kongsberg multibeam vendor format
0115_20210729_161811_Sikuliaq.all.mb58.gz 34.01MB Kongsberg multibeam vendor format
0116_20210729_171817_Sikuliaq.all.mb58.gz 33.86MB Kongsberg multibeam vendor format
0117_20210729_181818_Sikuliaq.all.mb58.gz 33.83MB Kongsberg multibeam vendor format
0118_20210729_191813_Sikuliaq.all.mb58.gz 33.89MB Kongsberg multibeam vendor format
0119_20210729_201816_Sikuliaq.all.mb58.gz 33.85MB Kongsberg multibeam vendor format
0120_20210729_211812_Sikuliaq.all.mb58.gz 22.73MB Kongsberg multibeam vendor format
0121_20210729_222344_Sikuliaq.all.mb58.gz 33.92MB Kongsberg multibeam vendor format
0122_20210729_232347_Sikuliaq.all.mb58.gz 33.85MB Kongsberg multibeam vendor format
0123_20210730_002348_Sikuliaq.all.mb58.gz 33.82MB Kongsberg multibeam vendor format
0124_20210730_012346_Sikuliaq.all.mb58.gz 33.84MB Kongsberg multibeam vendor format
0125_20210730_022344_Sikuliaq.all.mb58.gz 33.99MB Kongsberg multibeam vendor format
0126_20210730_032341_Sikuliaq.all.mb58.gz 34.75MB Kongsberg multibeam vendor format
0127_20210730_042341_Sikuliaq.all.mb58.gz 33.90MB Kongsberg multibeam vendor format
0128_20210730_052343_Sikuliaq.all.mb58.gz 33.55MB Kongsberg multibeam vendor format
0129_20210730_062342_Sikuliaq.all.mb58.gz 24.55MB Kongsberg multibeam vendor format
0130_20210730_072341_Sikuliaq.all.mb58.gz 30.38MB Kongsberg multibeam vendor format
0131_20210730_082344_Sikuliaq.all.mb58.gz 33.93MB Kongsberg multibeam vendor format
0132_20210730_092342_Sikuliaq.all.mb58.gz 33.95MB Kongsberg multibeam vendor format
0133_20210730_102341_Sikuliaq.all.mb58.gz 33.96MB Kongsberg multibeam vendor format
0134_20210730_112344_Sikuliaq.all.mb58.gz 33.91MB Kongsberg multibeam vendor format
0135_20210730_122341_Sikuliaq.all.mb58.gz 33.80MB Kongsberg multibeam vendor format
0136_20210730_132341_Sikuliaq.all.mb58.gz 33.87MB Kongsberg multibeam vendor format
0137_20210730_142344_Sikuliaq.all.mb58.gz 33.96MB Kongsberg multibeam vendor format
0138_20210730_152348_Sikuliaq.all.mb58.gz 34.01MB Kongsberg multibeam vendor format
0139_20210730_162346_Sikuliaq.all.mb58.gz 34.10MB Kongsberg multibeam vendor format
0140_20210730_172348_Sikuliaq.all.mb58.gz 33.57MB Kongsberg multibeam vendor format
0141_20210730_182341_Sikuliaq.all.mb58.gz 33.26MB Kongsberg multibeam vendor format
0142_20210730_192348_Sikuliaq.all.mb58.gz 34.07MB Kongsberg multibeam vendor format
0143_20210730_202342_Sikuliaq.all.mb58.gz 36.79MB Kongsberg multibeam vendor format
0144_20210730_212343_Sikuliaq.all.mb58.gz 36.24MB Kongsberg multibeam vendor format
0145_20210730_222345_Sikuliaq.all.mb58.gz 15.49MB Kongsberg multibeam vendor format
0146_20210730_225013_Sikuliaq.all.mb58.gz 58.77MB Kongsberg multibeam vendor format
0147_20210730_235011_Sikuliaq.all.mb58.gz 13.87MB Kongsberg multibeam vendor format
0148_20210731_165115_Sikuliaq.all.mb58.gz 58.56MB Kongsberg multibeam vendor format
0149_20210731_175115_Sikuliaq.all.mb58.gz 55.50MB Kongsberg multibeam vendor format
0150_20210731_185115_Sikuliaq.all.mb58.gz 58.48MB Kongsberg multibeam vendor format
0151_20210731_195115_Sikuliaq.all.mb58.gz 59.43MB Kongsberg multibeam vendor format
0152_20210731_205115_Sikuliaq.all.mb58.gz 56.40MB Kongsberg multibeam vendor format
0153_20210731_215115_Sikuliaq.all.mb58.gz 57.84MB Kongsberg multibeam vendor format
0154_20210731_225115_Sikuliaq.all.mb58.gz 55.35MB Kongsberg multibeam vendor format
0155_20210731_235115_Sikuliaq.all.mb58.gz 49.33MB Kongsberg multibeam vendor format
0156_20210801_005116_Sikuliaq.all.mb58.gz 43.41MB Kongsberg multibeam vendor format
0157_20210801_015116_Sikuliaq.all.mb58.gz 59.59MB Kongsberg multibeam vendor format
0158_20210801_025116_Sikuliaq.all.mb58.gz 60.23MB Kongsberg multibeam vendor format
0159_20210801_035116_Sikuliaq.all.mb58.gz 64.98MB Kongsberg multibeam vendor format
0160_20210801_045116_Sikuliaq.all.mb58.gz 69.28MB Kongsberg multibeam vendor format
0161_20210801_055116_Sikuliaq.all.mb58.gz 65.77MB Kongsberg multibeam vendor format
0162_20210801_065116_Sikuliaq.all.mb58.gz 65.19MB Kongsberg multibeam vendor format
0163_20210801_075116_Sikuliaq.all.mb58.gz 63.00MB Kongsberg multibeam vendor format
0164_20210801_085116_Sikuliaq.all.mb58.gz 61.53MB Kongsberg multibeam vendor format
0165_20210801_095116_Sikuliaq.all.mb58.gz 61.80MB Kongsberg multibeam vendor format
0166_20210801_105116_Sikuliaq.all.mb58.gz 64.01MB Kongsberg multibeam vendor format
0167_20210801_115116_Sikuliaq.all.mb58.gz 65.34MB Kongsberg multibeam vendor format
0168_20210801_125117_Sikuliaq.all.mb58.gz 65.11MB Kongsberg multibeam vendor format
0169_20210801_135116_Sikuliaq.all.mb58.gz 60.29MB Kongsberg multibeam vendor format
0170_20210801_145117_Sikuliaq.all.mb58.gz 54.57MB Kongsberg multibeam vendor format
0171_20210801_155116_Sikuliaq.all.mb58.gz 59.65MB Kongsberg multibeam vendor format
0172_20210801_165117_Sikuliaq.all.mb58.gz 87.13MB Kongsberg multibeam vendor format
0173_20210801_175116_Sikuliaq.all.mb58.gz 87.21MB Kongsberg multibeam vendor format
0174_20210801_185117_Sikuliaq.all.mb58.gz 85.77MB Kongsberg multibeam vendor format
0175_20210801_195116_Sikuliaq.all.mb58.gz 76.47MB Kongsberg multibeam vendor format
0176_20210801_205116_Sikuliaq.all.mb58.gz 60.54MB Kongsberg multibeam vendor format
0177_20210801_215116_Sikuliaq.all.mb58.gz 65.34MB Kongsberg multibeam vendor format
0178_20210801_225116_Sikuliaq.all.mb58.gz 65.10MB Kongsberg multibeam vendor format
0179_20210801_235116_Sikuliaq.all.mb58.gz 87.24MB Kongsberg multibeam vendor format
0180_20210802_005118_Sikuliaq.all.mb58.gz 97.85MB Kongsberg multibeam vendor format
0181_20210802_015117_Sikuliaq.all.mb58.gz 93.53MB Kongsberg multibeam vendor format
0182_20210802_025117_Sikuliaq.all.mb58.gz 98.52MB Kongsberg multibeam vendor format
0183_20210802_035117_Sikuliaq.all.mb58.gz 94.98MB Kongsberg multibeam vendor format
0184_20210802_045117_Sikuliaq.all.mb58.gz 92.06MB Kongsberg multibeam vendor format
0185_20210802_055117_Sikuliaq.all.mb58.gz 87.79MB Kongsberg multibeam vendor format
0186_20210802_065117_Sikuliaq.all.mb58.gz 95.12MB Kongsberg multibeam vendor format
0187_20210802_075117_Sikuliaq.all.mb58.gz 87.60MB Kongsberg multibeam vendor format
0188_20210802_085117_Sikuliaq.all.mb58.gz 90.36MB Kongsberg multibeam vendor format
0189_20210802_095117_Sikuliaq.all.mb58.gz 93.41MB Kongsberg multibeam vendor format
0190_20210802_105117_Sikuliaq.all.mb58.gz 96.01MB Kongsberg multibeam vendor format
0191_20210802_115118_Sikuliaq.all.mb58.gz 95.72MB Kongsberg multibeam vendor format
0192_20210802_125118_Sikuliaq.all.mb58.gz 87.43MB Kongsberg multibeam vendor format
0193_20210802_135117_Sikuliaq.all.mb58.gz 3.90MB Kongsberg multibeam vendor format
0000_20210719_002506_Sikuliaq.all.mb58.gz 89.89MB Kongsberg multibeam vendor format
0001_20210719_012506_Sikuliaq.all.mb58.gz 71.42MB Kongsberg multibeam vendor format
0002_20210719_022506_Sikuliaq.all.mb58.gz 58.44MB Kongsberg multibeam vendor format

Metadata Files: 6

Files File Size Description
SKQ202111S.xml 75.6KB XML metadata file
bag-info.txt 1.0KB Informal metadata text
bagit.txt 55 Bytes Informal metadata text
file-info.txt 273 Bytes Informal metadata text
manifest-md5.txt 219 Bytes Informal metadata text
tagmanifest-md5.txt 186 Bytes Informal metadata text

Water Column Sonar Data

Water Column Sonar Data Available: WCSD Map Viewer